| time (UTC) | temp F | wind direction | speed MPH | gust MPH | rain 1hr in | rain 24hr in | rain mn in | humidity % | barometer mb |
| 20260510142327 | 65 | 325 | 5.0 | 9.0 | 0.00 | 0.00 | 0.00 | 86 | 1014.6 |
| 20260510141318 | 65 | 18 | 2.0 | 5.0 | 0.00 | 0.00 | 0.00 | 87 | 1014.6 |
| 20260510140812 | 65 | 336 | 2.0 | 5.0 | 0.00 | 0.00 | 0.00 | 87 | 1014.6 |
| 20260510140326 | 65 | 317 | 2.0 | 4.0 | 0.00 | 0.00 | 0.00 | 88 | 1014.8 |
| 20260510135317 | 64 | 313 | 2.0 | 5.0 | 0.00 | 0.00 | 0.00 | 89 | 1014.7 |
| 20260510134816 | 64 | 307 | 4.0 | 5.0 | 0.00 | 0.00 | 0.00 | 89 | 1014.7 |
| 20260510134330 | 64 | 309 | 3.0 | 4.0 | 0.00 | 0.00 | 0.00 | 89 | 1014.6 |
| 20260510133824 | 64 | 68 | 1.0 | 2.0 | 0.00 | 0.00 | 0.00 | 88 | 1014.4 |
| 20260510133318 | 64 | 68 | 1.0 | 2.0 | 0.00 | 0.00 | 0.00 | 88 | 1014.0 |
| 20260510132813 | 64 | 68 | 1.0 | 2.0 | 0.00 | 0.00 | 0.00 | 88 | 1014.0 |
| 20260510132327 | 64 | 69 | 1.0 | 2.0 | 0.00 | 0.00 | 0.00 | 88 | 1014.1 |
| 20260510131318 | 64 | 304 | 1.0 | 2.0 | 0.00 | 0.00 | 0.00 | 88 | 1014.1 |
| 20260510130816 | 64 | 270 | 0.0 | 1.0 | 0.00 | 0.00 | 0.00 | 87 | 1014.1 |
| 20260510125826 | 64 | 284 | 0.0 | 0.0 | 0.00 | 0.00 | 0.00 | 86 | 1014.0 |
| 20260510125320 | 64 | 284 | 0.0 | 1.0 | 0.00 | 0.00 | 0.00 | 86 | 1013.8 |
| 20260510124814 | 64 | 284 | 0.0 | 1.0 | 0.00 | 0.00 | 0.00 | 87 | 1013.5 |
| 20260510124329 | 63 | 284 | 0.0 | 1.0 | 0.00 | 0.00 | 0.00 | 87 | 1013.4 |
| 20260510122815 | 62 | 298 | 2.0 | 2.0 | 0.00 | 0.00 | 0.00 | 89 | 1013.0 |
| 20260510122314 | 61 | 296 | 0.0 | 1.0 | 0.00 | 0.00 | 0.00 | 90 | 1012.7 |
| 20260510121828 | 61 | 296 | 0.0 | 1.0 | 0.00 | 0.00 | 0.00 | 90 | 1012.5 |
| 20260510121323 | 60 | 227 | 0.0 | 1.0 | 0.00 | 0.00 | 0.00 | 90 | 1012.2 |
| 20260510120817 | 60 | 11 | 0.0 | 1.0 | 0.00 | 0.00 | 0.00 | 90 | 1012.2 |
| 20260510120332 | 59 | 9 | 0.0 | 1.0 | 0.00 | 0.00 | 0.00 | 90 | 1012.2 |
| 20260510115826 | 59 | 9 | 0.0 | 2.0 | 0.00 | 0.00 | 0.00 | 89 | 1012.4 |
| 20260510115321 | 58 | 347 | 1.0 | 3.0 | 0.00 | 0.00 | 0.00 | 89 | 1012.5 |
| 20260510113812 | 59 | 355 | 1.0 | 1.0 | 0.00 | 0.00 | 0.00 | 88 | 1012.1 |
| 20260510113327 | 59 | 355 | 0.0 | 2.0 | 0.00 | 0.00 | 0.00 | 87 | 1012.0 |
| 20260510112821 | 59 | 101 | 1.0 | 2.0 | 0.00 | 0.00 | 0.00 | 87 | 1011.8 |
| 20260510112316 | 59 | 101 | 1.0 | 2.0 | 0.00 | 0.00 | 0.00 | 87 | 1011.7 |
| 20260510111830 | 59 | 101 | 0.0 | 3.0 | 0.00 | 0.00 | 0.00 | 87 | 1011.6 |
| 20260510111324 | 59 | 99 | 1.0 | 4.0 | 0.00 | 0.00 | 0.00 | 87 | 1011.3 |
| 20260510110319 | 59 | 101 | 2.0 | 3.0 | 0.00 | 0.00 | 0.00 | 86 | 1011.3 |
| 20260510105812 | 60 | 24 | 0.0 | 1.0 | 0.00 | 0.00 | 0.00 | 86 | 1011.2 |
| 20260510105326 | 60 | 24 | 0.0 | 2.0 | 0.00 | 0.00 | 0.00 | 86 | 1011.2 |
| 20260510104821 | 60 | 24 | 1.0 | 2.0 | 0.00 | 0.00 | 0.00 | 85 | 1011.3 |
| 20260510103831 | 60 | 82 | 1.0 | 2.0 | 0.00 | 0.00 | 0.00 | 84 | 1011.2 |
| 20260510103326 | 61 | 50 | 0.0 | 2.0 | 0.00 | 0.00 | 0.00 | 84 | 1011.3 |
| 20260510102317 | 61 | 50 | 1.0 | 2.0 | 0.00 | 0.00 | 0.00 | 84 | 1011.3 |
| 20260510101815 | 61 | 32 | 1.0 | 2.0 | 0.00 | 0.00 | 0.00 | 84 | 1011.2 |
| 20260510101330 | 61 | 30 | 1.0 | 2.0 | 0.00 | 0.00 | 0.00 | 84 | 1011.2 |
| 20260510100320 | 61 | 27 | 2.0 | 4.0 | 0.00 | 0.00 | 0.00 | 84 | 1011.1 |
| 20260510095814 | 61 | 9 | 2.0 | 4.0 | 0.00 | 0.00 | 0.00 | 84 | 1011.1 |
| 20260510095330 | 61 | 26 | 2.0 | 4.0 | 0.00 | 0.01 | 0.00 | 84 | 1011.0 |
| 20260510094824 | 61 | 26 | 2.0 | 4.0 | 0.00 | 0.01 | 0.00 | 84 | 1010.9 |
| 20260510093819 | 62 | 140 | 0.0 | 0.0 | 0.00 | 0.01 | 0.00 | 81 | 1010.6 |
| 20260510093313 | 62 | 140 | 0.0 | 0.0 | 0.00 | 0.01 | 0.00 | 81 | 1010.5 |
| 20260510092828 | 63 | 140 | 0.0 | 0.0 | 0.00 | 0.01 | 0.00 | 79 | 1010.4 |
| 20260510092321 | 63 | 142 | 0.0 | 0.0 | 0.00 | 0.01 | 0.00 | 79 | 1010.3 |
| 20260510091816 | 63 | 142 | 0.0 | 1.0 | 0.00 | 0.01 | 0.00 | 78 | 1010.1 |
| 20260510091329 | 63 | 142 | 0.0 | 1.0 | 0.00 | 0.01 | 0.00 | 78 | 1010.0 |
| 20260510090824 | 64 | 142 | 0.0 | 1.0 | 0.00 | 0.01 | 0.00 | 78 | 1009.9 |
| 20260510090318 | 64 | 142 | 0.0 | 2.0 | 0.00 | 0.01 | 0.00 | 77 | 1010.0 |
| 20260510085817 | 64 | 142 | 0.0 | 4.0 | 0.00 | 0.01 | 0.00 | 78 | 1010.1 |
| 20260510085331 | 63 | 146 | 1.0 | 4.0 | 0.00 | 0.01 | 0.00 | 79 | 1009.9 |
| 20260510084826 | 63 | 140 | 2.0 | 4.0 | 0.00 | 0.01 | 0.00 | 81 | 1009.8 |
| 20260510084317 | 63 | 103 | 2.0 | 3.0 | 0.00 | 0.01 | 0.00 | 82 | 1009.8 |
| 20260510083812 | 63 | 122 | 0.0 | 0.0 | 0.00 | 0.01 | 0.00 | 82 | 1009.9 |
| 20260510082823 | 64 | 122 | 0.0 | 2.0 | 0.00 | 0.01 | 0.00 | 83 | 1010.1 |
| 20260510082318 | 64 | 122 | 1.0 | 4.0 | 0.00 | 0.01 | 0.00 | 83 | 1010.0 |
| 20260510081816 | 64 | 122 | 1.0 | 10.0 | 0.00 | 0.01 | 0.00 | 83 | 1009.7 |
| 20260510081330 | 63 | 233 | 2.0 | 10.0 | 0.00 | 0.01 | 0.00 | 84 | 1009.6 |
| 20260510080824 | 63 | 207 | 1.0 | 3.0 | 0.00 | 0.01 | 0.00 | 85 | 1009.4 |
| 20260510080318 | 63 | 95 | 0.0 | 4.0 | 0.00 | 0.01 | 0.00 | 85 | 1009.0 |
| 20260510075813 | 63 | 94 | 2.0 | 3.0 | 0.00 | 0.01 | 0.00 | 85 | 1008.6 |
| 20260510075327 | 63 | 75 | 0.0 | 0.0 | 0.00 | 0.01 | 0.00 | 85 | 1008.7 |
| 20260510074822 | 63 | 75 | 0.0 | 0.0 | 0.00 | 0.01 | 0.00 | 84 | 1008.8 |
| 20260510074320 | 63 | 75 | 0.0 | 0.0 | 0.00 | 0.01 | 0.00 | 84 | 1009.0 |
| 20260510073815 | 63 | 75 | 0.0 | 2.0 | 0.00 | 0.01 | 0.00 | 84 | 1009.0 |
| 20260510073329 | 63 | 75 | 0.0 | 3.0 | 0.00 | 0.01 | 0.00 | 84 | 1008.9 |
| 20260510072822 | 63 | 74 | 2.0 | 3.0 | 0.00 | 0.01 | 0.00 | 85 | 1009.0 |
| 20260510072317 | 64 | 104 | 2.0 | 3.0 | 0.00 | 0.01 | 0.00 | 85 | 1009.2 |
| 20260510071811 | 64 | 107 | 0.0 | 2.0 | 0.00 | 0.01 | 0.00 | 84 | 1009.1 |
| 20260510070823 | 64 | 107 | 0.0 | 3.0 | 0.00 | 0.01 | 0.00 | 84 | 1009.4 |
| 20260510070321 | 64 | 106 | 2.0 | 3.0 | 0.00 | 0.01 | 0.00 | 84 | 1009.5 |
| 20260510065816 | 64 | 97 | 2.0 | 4.0 | 0.00 | 0.01 | 0.00 | 84 | 1009.5 |
| 20260510065310 | 64 | 94 | 3.0 | 4.0 | 0.00 | 0.02 | 0.00 | 85 | 1009.7 |
| 20260510064825 | 64 | 146 | 1.0 | 3.0 | 0.00 | 0.02 | 0.00 | 85 | 1009.6 |
| 20260510064318 | 63 | 152 | 1.0 | 3.0 | 0.00 | 0.02 | 0.00 | 86 | 1009.5 |
| 20260510063812 | 63 | 161 | 2.0 | 3.0 | 0.00 | 0.02 | 0.00 | 86 | 1009.7 |
| 20260510063327 | 63 | 150 | 1.0 | 3.0 | 0.00 | 0.02 | 0.00 | 86 | 1009.6 |
| 20260510062821 | 63 | 141 | 0.0 | 2.0 | 0.00 | 0.02 | 0.00 | 86 | 1010.0 |
| 20260510062319 | 63 | 141 | 1.0 | 4.0 | 0.00 | 0.02 | 0.00 | 86 | 1010.1 |
| 20260510061330 | 63 | 327 | 2.0 | 4.0 | 0.00 | 0.02 | 0.00 | 86 | 1010.6 |
| 20260510060824 | 64 | 147 | 0.0 | 2.0 | 0.00 | 0.02 | 0.00 | 86 | 1010.7 |
| 20260510060317 | 64 | 147 | 1.0 | 3.0 | 0.00 | 0.02 | 0.00 | 85 | 1010.8 |
| 20260510055811 | 64 | 147 | 2.0 | 4.0 | 0.00 | 0.02 | 0.00 | 85 | 1010.9 |
| 20260510055326 | 64 | 324 | 2.0 | 4.0 | 0.00 | 0.02 | 0.00 | 85 | 1010.9 |
| 20260510054821 | 64 | 312 | 0.0 | 1.0 | 0.00 | 0.02 | 0.00 | 85 | 1010.8 |
| 20260510053313 | 63 | 312 | 0.0 | 1.0 | 0.00 | 0.02 | 0.00 | 85 | 1010.7 |
| 20260510052827 | 63 | 312 | 0.0 | 0.0 | 0.00 | 0.02 | 0.00 | 86 | 1010.9 |
| 20260510052322 | 63 | 312 | 0.0 | 0.0 | 0.00 | 0.02 | 0.00 | 87 | 1010.9 |
| 20260510051817 | 63 | 312 | 0.0 | 0.0 | 0.00 | 0.02 | 0.00 | 86 | 1011.0 |
| 20260510051311 | 62 | 312 | 0.0 | 2.0 | 0.00 | 0.02 | 0.00 | 87 | 1011.0 |
| 20260510050825 | 62 | 312 | 0.0 | 2.0 | 0.00 | 0.02 | 0.00 | 87 | 1011.0 |
| 20260510050324 | 62 | 312 | 1.0 | 2.0 | 0.00 | 0.02 | 0.00 | 87 | 1011.0 |
| 20260510045818 | 62 | 312 | 0.0 | 2.0 | 0.00 | 0.02 | 0.00 | 87 | 1010.9 |
| 20260510045312 | 62 | 312 | 0.0 | 3.0 | 0.00 | 0.02 | 0.02 | 87 | 1010.8 |
| 20260510044826 | 62 | 312 | 2.0 | 3.0 | 0.00 | 0.02 | 0.02 | 87 | 1010.6 |
| 20260510044320 | 62 | 311 | 2.0 | 3.0 | 0.00 | 0.02 | 0.02 | 87 | 1010.5 |
| 20260510043814 | 62 | 140 | 0.0 | 0.0 | 0.00 | 0.02 | 0.02 | 86 | 1010.2 |
| 20260510043329 | 62 | 135 | 0.0 | 0.0 | 0.00 | 0.02 | 0.02 | 85 | 1010.2 |
| 20260510042322 | 62 | 135 | 0.0 | 0.0 | 0.00 | 0.02 | 0.02 | 84 | 1009.8 |
| 20260510041815 | 62 | 135 | 0.0 | 0.0 | 0.00 | 0.02 | 0.02 | 84 | 1009.7 |
| 20260510041330 | 62 | 135 | 0.0 | 1.0 | 0.00 | 0.02 | 0.02 | 84 | 1009.6 |
| 20260510040823 | 62 | 135 | 1.0 | 1.0 | 0.00 | 0.02 | 0.02 | 84 | 1009.6 |
| 20260510040318 | 63 | 135 | 0.0 | 2.0 | 0.00 | 0.02 | 0.02 | 84 | 1009.6 |
| 20260510035812 | 63 | 136 | 0.0 | 2.0 | 0.00 | 0.02 | 0.02 | 83 | 1009.7 |
| 20260510035325 | 63 | 136 | 0.0 | 0.0 | 0.00 | 0.02 | 0.02 | 83 | 1009.8 |
| 20260510034820 | 63 | 143 | 0.0 | 0.0 | 0.00 | 0.02 | 0.02 | 83 | 1009.7 |
| 20260510033311 | 63 | 175 | 0.0 | 0.0 | 0.00 | 0.02 | 0.02 | 85 | 1009.7 |
| 20260510032826 | 62 | 175 | 0.0 | 1.0 | 0.00 | 0.02 | 0.02 | 84 | 1009.7 |
| 20260510032320 | 62 | 175 | 0.0 | 2.0 | 0.00 | 0.02 | 0.02 | 84 | 1009.8 |
| 20260510031815 | 63 | 175 | 1.0 | 2.0 | 0.00 | 0.02 | 0.02 | 83 | 1010.0 |
| 20260510031329 | 63 | 173 | 0.0 | 3.0 | 0.00 | 0.02 | 0.02 | 83 | 1010.0 |
| 20260510030823 | 63 | 173 | 1.0 | 3.0 | 0.00 | 0.02 | 0.02 | 82 | 1009.9 |
| 20260510030322 | 63 | 67 | 0.0 | 0.0 | 0.00 | 0.02 | 0.02 | 82 | 1009.5 |
| 20260510025816 | 63 | 65 | 0.0 | 0.0 | 0.00 | 0.02 | 0.02 | 80 | 1009.3 |
| 20260510024826 | 64 | 65 | 0.0 | 0.0 | 0.00 | 0.02 | 0.02 | 77 | 1008.8 |
| 20260510024320 | 64 | 65 | 0.0 | 0.0 | 0.00 | 0.02 | 0.02 | 76 | 1008.7 |
| 20260510023814 | 65 | 65 | 0.0 | 0.0 | 0.00 | 0.02 | 0.02 | 76 | 1008.4 |
| 20260510023328 | 65 | 65 | 0.0 | 0.0 | 0.00 | 0.02 | 0.02 | 76 | 1008.4 |
| 20260510022822 | 65 | 65 | 0.0 | 0.0 | 0.00 | 0.02 | 0.02 | 76 | 1008.2 |
| 20260510021311 | 67 | 65 | 0.0 | 0.0 | 0.00 | 0.02 | 0.02 | 71 | 1007.9 |
| 20260510020825 | 67 | 65 | 0.0 | 0.0 | 0.00 | 0.02 | 0.02 | 71 | 1007.9 |
| 20260510020319 | 68 | 65 | 0.0 | 0.0 | 0.00 | 0.02 | 0.02 | 70 | 1007.8 |
| 20260510015814 | 68 | 65 | 0.0 | 0.0 | 0.00 | 0.02 | 0.02 | 68 | 1007.7 |
| 20260510015327 | 69 | 65 | 0.0 | 0.0 | 0.00 | 0.02 | 0.02 | 67 | 1007.6 |
| 20260510014822 | 69 | 65 | 0.0 | 0.0 | 0.00 | 0.02 | 0.02 | 67 | 1007.6 |
| 20260510014316 | 70 | 65 | 0.0 | 0.0 | 0.00 | 0.02 | 0.02 | 65 | 1007.3 |
| 20260510013814 | 70 | 65 | 0.0 | 0.0 | 0.00 | 0.02 | 0.02 | 63 | 1007.3 |
| 20260510013330 | 71 | 65 | 0.0 | 0.0 | 0.00 | 0.02 | 0.02 | 63 | 1007.2 |
| 20260510012824 | 71 | 65 | 0.0 | 0.0 | 0.00 | 0.02 | 0.02 | 63 | 1007.1 |
| 20260510012318 | 72 | 65 | 0.0 | 0.0 | 0.00 | 0.02 | 0.02 | 62 | 1007.0 |
| 20260510011812 | 72 | 65 | 0.0 | 0.0 | 0.00 | 0.02 | 0.02 | 60 | 1006.8 |
| 20260510011326 | 73 | 215 | 0.0 | 0.0 | 0.00 | 0.02 | 0.02 | 60 | 1006.7 |
| 20260510010820 | 74 | 62 | 0.0 | 2.0 | 0.00 | 0.02 | 0.02 | 58 | 1006.6 |
| 20260510010319 | 75 | 62 | 1.0 | 2.0 | 0.00 | 0.02 | 0.02 | 57 | 1006.6 |
| 20260510005814 | 76 | 62 | 1.0 | 2.0 | 0.00 | 0.02 | 0.02 | 55 | 1006.6 |
| 20260510005328 | 76 | 62 | 1.0 | 2.0 | 0.00 | 0.11 | 0.02 | 54 | 1006.5 |
| 20260510004823 | 77 | 167 | 0.0 | 2.0 | 0.00 | 0.11 | 0.02 | 53 | 1006.5 |
| 20260510004316 | 77 | 172 | 0.0 | 1.0 | 0.00 | 0.11 | 0.02 | 54 | 1006.4 |
| 20260510003830 | 78 | 173 | 0.0 | 2.0 | 0.00 | 0.11 | 0.02 | 53 | 1006.4 |
| 20260510003324 | 78 | 184 | 0.0 | 1.0 | 0.00 | 0.11 | 0.02 | 53 | 1006.4 |
| 20260510002319 | 79 | 217 | 1.0 | 2.0 | 0.00 | 0.11 | 0.02 | 52 | 1006.2 |
| 20260510001311 | 80 | 123 | 1.0 | 4.0 | 0.00 | 0.11 | 0.02 | 49 | 1006.4 |
| 20260510000825 | 80 | 117 | 2.0 | 4.0 | 0.00 | 0.11 | 0.02 | 48 | 1006.4 |
| 20260510000320 | 80 | 111 | 1.0 | 3.0 | 0.00 | 0.11 | 0.02 | 48 | 1006.5 |
| 20260509235815 | 81 | 119 | 1.0 | 3.0 | 0.00 | 0.11 | 0.02 | 47 | 1006.4 |
| 20260509234824 | 81 | 151 | 1.0 | 3.0 | 0.00 | 0.14 | 0.02 | 46 | 1006.5 |
| 20260509232813 | 82 | 111 | 2.0 | 6.0 | 0.00 | 0.14 | 0.02 | 43 | 1006.5 |
| 20260509231824 | 82 | 77 | 3.0 | 8.0 | 0.00 | 0.14 | 0.02 | 44 | 1006.5 |
| 20260509230815 | 82 | 121 | 2.0 | 4.0 | 0.00 | 0.14 | 0.02 | 45 | 1006.7 |
| 20260509230329 | 82 | 157 | 2.0 | 4.0 | 0.00 | 0.14 | 0.02 | 44 | 1006.7 |
| 20260509225823 | 83 | 132 | 2.0 | 4.0 | 0.00 | 0.14 | 0.02 | 46 | 1006.7 |
| 20260509225318 | 82 | 152 | 0.0 | 3.0 | 0.00 | 0.14 | 0.02 | 44 | 1006.8 |
| 20260509224313 | 83 | 170 | 2.0 | 5.0 | 0.00 | 0.14 | 0.02 | 48 | 1006.8 |
| 20260509223322 | 83 | 146 | 3.0 | 5.0 | 0.00 | 0.14 | 0.02 | 42 | 1006.7 |
| 20260509222817 | 83 | 160 | 2.0 | 6.0 | 0.00 | 0.14 | 0.02 | 46 | 1006.8 |
| 20260509222311 | 83 | 109 | 3.0 | 6.0 | 0.00 | 0.14 | 0.02 | 41 | 1006.8 |
| 20260509221827 | 83 | 122 | 2.0 | 3.0 | 0.00 | 0.14 | 0.02 | 43 | 1006.8 |
| 20260509221320 | 83 | 176 | 1.0 | 4.0 | 0.00 | 0.14 | 0.02 | 44 | 1006.9 |
| 20260509220819 | 83 | 192 | 2.0 | 4.0 | 0.00 | 0.14 | 0.02 | 43 | 1006.9 |
| 20260509220313 | 83 | 206 | 2.0 | 4.0 | 0.00 | 0.14 | 0.02 | 39 | 1007.0 |
| 20260509215828 | 83 | 139 | 1.0 | 6.0 | 0.00 | 0.14 | 0.02 | 44 | 1007.1 |
| 20260509214311 | 83 | 163 | 0.0 | 5.0 | 0.00 | 0.14 | 0.02 | 40 | 1007.2 |
| 20260509213825 | 83 | 247 | 3.0 | 5.0 | 0.00 | 0.14 | 0.02 | 39 | 1007.1 |
| 20260509212815 | 83 | 168 | 1.0 | 4.0 | 0.00 | 0.14 | 0.02 | 43 | 1007.3 |
| 20260509212313 | 83 | 90 | 2.0 | 6.0 | 0.00 | 0.14 | 0.02 | 38 | 1007.4 |
| 20260509211827 | 83 | 101 | 3.0 | 6.0 | 0.00 | 0.14 | 0.02 | 38 | 1007.4 |
| 20260509211321 | 83 | 122 | 0.0 | 4.0 | 0.00 | 0.14 | 0.02 | 40 | 1007.5 |
| 20260509210814 | 83 | 178 | 2.0 | 7.0 | 0.00 | 0.14 | 0.02 | 39 | 1007.5 |
| 20260509210328 | 83 | 130 | 2.0 | 4.0 | 0.00 | 0.14 | 0.02 | 42 | 1007.5 |
| 20260509205823 | 83 | 95 | 3.0 | 6.0 | 0.00 | 0.14 | 0.02 | 38 | 1007.5 |
| 20260509204812 | 83 | 121 | 2.0 | 6.0 | 0.00 | 0.14 | 0.02 | 35 | 1007.6 |
| 20260509203826 | 82 | 271 | 1.0 | 6.0 | 0.00 | 0.14 | 0.02 | 44 | 1007.7 |
| 20260509203319 | 82 | 116 | 1.0 | 5.0 | 0.00 | 0.14 | 0.02 | 42 | 1007.8 |
| 20260509202814 | 83 | 151 | 2.0 | 6.0 | 0.00 | 0.14 | 0.02 | 51 | 1007.8 |
| 20260509202328 | 82 | 246 | 1.0 | 6.0 | 0.00 | 0.14 | 0.02 | 44 | 1007.8 |
| 20260509201822 | 82 | 209 | 1.0 | 4.0 | 0.00 | 0.14 | 0.02 | 44 | 1007.9 |
| 20260509201317 | 83 | 130 | 2.0 | 4.0 | 0.00 | 0.14 | 0.02 | 46 | 1008.1 |
| 20260509200831 | 82 | 307 | 1.0 | 4.0 | 0.00 | 0.14 | 0.02 | 46 | 1008.1 |
| 20260509200324 | 82 | 156 | 2.0 | 7.0 | 0.00 | 0.14 | 0.02 | 43 | 1008.2 |
| 20260509195822 | 82 | 136 | 3.0 | 7.0 | 0.00 | 0.14 | 0.02 | 49 | 1008.3 |
| 20260509194813 | 82 | 160 | 3.0 | 5.0 | 0.00 | 0.14 | 0.02 | 46 | 1008.3 |
| 20260509194326 | 82 | 186 | 3.0 | 4.0 | 0.00 | 0.14 | 0.02 | 49 | 1008.3 |
| 20260509193820 | 81 | 152 | 1.0 | 5.0 | 0.00 | 0.14 | 0.02 | 48 | 1008.3 |
| 20260509193314 | 82 | 194 | 3.0 | 5.0 | 0.00 | 0.14 | 0.02 | 51 | 1008.2 |
| 20260509192827 | 82 | 148 | 2.0 | 5.0 | 0.00 | 0.14 | 0.02 | 50 | 1008.2 |
| 20260509192321 | 82 | 168 | 3.0 | 5.0 | 0.00 | 0.14 | 0.02 | 53 | 1008.3 |
| 20260509191819 | 82 | 195 | 2.0 | 5.0 | 0.00 | 0.14 | 0.02 | 55 | 1008.5 |
| 20260509185318 | 81 | 204 | 3.0 | 5.0 | 0.00 | 0.14 | 0.02 | 43 | 1008.6 |
| 20260509184812 | 82 | 190 | 2.0 | 5.0 | 0.00 | 0.14 | 0.02 | 55 | 1008.6 |
| 20260509184325 | 81 | 144 | 2.0 | 4.0 | 0.00 | 0.14 | 0.02 | 56 | 1008.5 |
| 20260509183820 | 80 | 33 | 2.0 | 4.0 | 0.00 | 0.14 | 0.02 | 51 | 1008.6 |
| 20260509182814 | 80 | 316 | 3.0 | 5.0 | 0.00 | 0.14 | 0.02 | 53 | 1008.7 |
| 20260509181823 | 80 | 199 | 1.0 | 7.0 | 0.00 | 0.14 | 0.02 | 59 | 1008.8 |
| 20260509181318 | 79 | 273 | 3.0 | 6.0 | 0.00 | 0.14 | 0.02 | 61 | 1008.9 |
| 20260509180831 | 79 | 228 | 2.0 | 4.0 | 0.00 | 0.14 | 0.02 | 62 | 1008.9 |
| 20260509175820 | 78 | 202 | 1.0 | 4.0 | 0.00 | 0.14 | 0.02 | 59 | 1009.0 |
| 20260509174830 | 78 | 236 | 3.0 | 6.0 | 0.00 | 0.14 | 0.02 | 66 | 1008.9 |
| 20260509174328 | 77 | 119 | 1.0 | 6.0 | 0.00 | 0.14 | 0.02 | 63 | 1009.0 |
| 20260509173822 | 78 | 212 | 3.0 | 7.0 | 0.00 | 0.14 | 0.02 | 67 | 1009.2 |
| 20260509173316 | 78 | 191 | 3.0 | 6.0 | 0.00 | 0.14 | 0.02 | 65 | 1009.3 |
| 20260509172328 | 77 | 41 | 0.0 | 7.0 | 0.00 | 0.14 | 0.02 | 70 | 1009.5 |
| 20260509171821 | 77 | 254 | 3.0 | 8.0 | 0.00 | 0.14 | 0.02 | 71 | 1009.5 |
| 20260509171315 | 76 | 230 | 3.0 | 5.0 | 0.00 | 0.14 | 0.02 | 70 | 1009.6 |
| 20260509170325 | 76 | 290 | 2.0 | 8.0 | 0.00 | 0.14 | 0.02 | 73 | 1009.6 |
| 20260509165823 | 75 | 270 | 4.0 | 8.0 | 0.00 | 0.14 | 0.02 | 71 | 1009.6 |
| 20260509165318 | 75 | 155 | 2.0 | 5.0 | 0.00 | 0.14 | 0.02 | 75 | 1009.6 |
| 20260509164831 | 75 | 209 | 2.0 | 5.0 | 0.00 | 0.14 | 0.02 | 75 | 1009.6 |
| 20260509164326 | 75 | 181 | 2.0 | 5.0 | 0.00 | 0.14 | 0.02 | 76 | 1009.6 |
| 20260509163819 | 74 | 181 | 1.0 | 5.0 | 0.00 | 0.14 | 0.02 | 79 | 1009.6 |
| 20260509163314 | 73 | 255 | 2.0 | 7.0 | 0.00 | 0.14 | 0.02 | 79 | 1009.6 |
| 20260509162827 | 73 | 273 | 3.0 | 6.0 | 0.00 | 0.14 | 0.02 | 79 | 1009.6 |
| 20260509162325 | 72 | 201 | 2.0 | 5.0 | 0.00 | 0.14 | 0.02 | 79 | 1009.5 |
| 20260509161819 | 72 | 252 | 3.0 | 5.0 | 0.00 | 0.14 | 0.02 | 79 | 1009.5 |
| 20260509161312 | 72 | 178 | 2.0 | 6.0 | 0.00 | 0.14 | 0.02 | 80 | 1009.5 |
| 20260509160827 | 72 | 209 | 3.0 | 5.0 | 0.00 | 0.14 | 0.02 | 80 | 1009.6 |
| 20260509155818 | 71 | 217 | 3.0 | 5.0 | 0.00 | 0.14 | 0.02 | 84 | 1009.5 |
| 20260509155312 | 71 | 207 | 2.0 | 7.0 | 0.00 | 0.14 | 0.02 | 84 | 1009.6 |
| 20260509154828 | 70 | 198 | 2.0 | 7.0 | 0.00 | 0.14 | 0.02 | 87 | 1009.6 |
| 20260509153822 | 69 | 247 | 4.0 | 7.0 | 0.00 | 0.14 | 0.02 | 87 | 1009.5 |
| 20260509153317 | 69 | 232 | 3.0 | 6.0 | 0.00 | 0.14 | 0.02 | 88 | 1009.4 |
| 20260509152831 | 69 | 254 | 3.0 | 6.0 | 0.00 | 0.14 | 0.02 | 88 | 1009.5 |
| 20260509152325 | 68 | 275 | 3.0 | 7.0 | 0.00 | 0.14 | 0.02 | 91 | 1009.5 |
| 20260509151820 | 68 | 248 | 3.0 | 5.0 | 0.00 | 0.14 | 0.02 | 91 | 1009.6 |
| 20260509151314 | 67 | 275 | 3.0 | 4.0 | 0.00 | 0.14 | 0.02 | 93 | 1009.5 |
| 20260509150828 | 66 | 173 | 3.0 | 6.0 | 0.00 | 0.14 | 0.02 | 94 | 1009.6 |
| 20260509150324 | 66 | 198 | 3.0 | 6.0 | 0.00 | 0.14 | 0.02 | 96 | 1009.6 |
| 20260509145819 | 65 | 182 | 1.0 | 5.0 | 0.00 | 0.14 | 0.02 | 96 | 1009.5 |
| 20260509145313 | 65 | 182 | 1.0 | 3.0 | 0.00 | 0.14 | 0.02 | 97 | 1009.5 |
| 20260509144827 | 64 | 152 | 1.0 | 4.0 | 0.00 | 0.14 | 0.02 | 97 | 1009.5 |
| 20260509143314 | 62 | 113 | 2.0 | 4.0 | 0.00 | 0.14 | 0.02 | 97 | 1009.4 |
| 20260509142828 | 62 | 200 | 1.0 | 3.0 | 0.00 | 0.14 | 0.02 | 97 | 1009.4 |